Regional Weather Roundup
Issued by NWS

Home | Current Version | Previous Version | Text Only | Print | Product List | Glossary Off
Versions: 1 2 3 4 5 6 7 8 9 10 11 12 13 14 15 16 17 18 19 20 21 22 23 24 25 26 27 28 29 30 31 32 33 34 35 36 37 38 39 40 41 42 43 44 45 46 47 48 49 50

000
ASUS43 KTOP 040108
RWRKS

WEATHER ROUNDUP FOR KANSAS
NATIONAL WEATHER SERVICE GOODLAND KS
800 PM CDT TUE MAY 03 2016

NOTE:  "FAIR" INDICATES FEW OR NO CLOUDS BELOW 12,000 FEET WITH NO
SIGNIFICANT WEATHER AND/OR OBSTRUCTIONS TO VISIBILITY.

KSZ001>006-013>018-027>032-041>047-040200-
NORTHWEST KANSAS

CITY           SKY/WX    TMP DP  RH WIND       PRES   REMARKS
GOODLAND       CLEAR     64  34  32 N10       30.09S
HAYS           CLEAR     63  43  48 N8        30.03S
HILL CITY      CLEAR     66  43  43 NW6       30.04S
RUSSELL        PTCLDY    65  44  46 NW9       30.00S
$$

KSZ061>065-074>080-084>089-040200-
SOUTHWEST KANSAS

CITY           SKY/WX    TMP DP  RH WIND       PRES   REMARKS
DODGE CITY     CLEAR     61  42  49 N9        30.06S
ELKHART          N/A     64  39  39 N8          N/A
GARDEN CITY    CLEAR     61  42  49 N10       30.07S
GREAT BEND     CLEAR     63  45  51 NW8       30.02S
LIBERAL        CLEAR     63  39  42 N10       30.09S
PRATT          CLEAR     61  43  51 NW6       30.02S
$$

KSZ066>073-081>083-090>101-040200-
SOUTHEAST KANSAS

CITY           SKY/WX    TMP DP  RH WIND       PRES   REMARKS
CHANUTE        MOCLDY    65  49  56 SW3       29.97F
COFFEYVILLE    CLEAR     65  46  50 SW5       29.98F
HUTCHINSON     CLEAR     67  44  43 NW9       29.99R
MEDICINE LODGE   N/A     68  44  42 N5        30.00R
NEWTON         CLEAR     66  43  42 W6        30.00S
PARSONS        CLEAR     62  51  67 CALM      29.99S
WICHITA INTL   PTCLDY    66  48  52 SW6       29.98S
WICHITA JABRA  PTCLDY    65  43  44 W6        29.98S
WICHITA MCCONL CLEAR     67  43  42 SW6       29.98S
WINFIELD       CLEAR     64  45  49 SW6       30.41R
$$

KSZ007>012-019>026-033>040-048>060-102>105-040200-
NORTHEAST KANSAS

CITY           SKY/WX    TMP DP  RH WIND       PRES   REMARKS
CONCORDIA      CLEAR     64  43  46 W7        29.98S
EMPORIA        PTCLDY    63  48  58 SW5       29.96S
LAWRENCE       CLEAR     64  45  49 W6        29.94F
MANHATTAN      PTCLDY    65  44  46 CALM      29.95F
MARYSVILLE     CLEAR     64  43  45 NW6       29.95F
OLATHE IND     CLEAR     65  43  44 W6        29.95F
OLATHE EXE     CLEAR     64  42  44 W5        29.95S
SALINA         CLEAR     67  47  48 NW9       29.98S
TOPEKA BILLARD CLEAR     67  42  40 W3        29.94F
TOPEKA FORBES  CLEAR     66  46  48 W5        29.95S
$$




USA.gov is the U.S. government's official web portal to all federal, state and local government web resources and services.